Regional Weather Roundup
Issued by NWS

Home | Current Version | Previous Version | Text Only | Print | Product List | Glossary Off
Versions: 1 2 3 4 5 6 7 8 9 10 11 12 13 14 15 16 17 18 19 20 21 22 23 24 25 26 27

000
ASUS45 KBOU 230510
RWRCO

WEATHER ROUNDUP FOR COLORADO
NATIONAL WEATHER SERVICE DENVER/BOULDER CO
1100 PM MDT TUE MAY 22 2018

NOTE: "FAIR" INDICATES FEW OR NO CLOUDS BELOW 12000 FEET WITH NO
SIGNIFICANT WEATHER AND/OR OBSTRUCTIONS TO VISIBILITY.

COZ001>005-013-030-031-230600-
...NORTHWEST COLORADO...

CITY           SKY/WX    TMP DP  RH WIND       PRES   REMARKS
CRAIG          FAIR      49  43  80 NE9       30.08F
HAYDEN         FAIR      44  42  93 E9        30.11F
MEEKER         FAIR      44  40  85 NE5       30.06F
RANGELY        FAIR      53  46  77 SE8       30.00S
RABBIT EARS PA FAIR      36  34  93 CALM      30.26F
STEAMBOAT SPGS FAIR      43  42  99 CALM      30.12S
WALDEN         FAIR      39  36  87 CALM      30.17F
$$

COZ006>008-011-230600-
...WEST CENTRAL VALLEYS...

CITY           SKY/WX    TMP DP  RH WIND       PRES   REMARKS
GRAND JUNCTION FAIR      54  45  71 CALM      29.96R
MONTROSE       FAIR      49  42  77 SE8       30.04F
EAGLE          FAIR      49  39  68 S5        30.12R
RIFLE          FAIR      50  43  77 E6        30.04S
DELTA          FAIR      53  47  79 NE5       30.01R
NUCLA          NOT AVBL
$$

COZ017>023-064>068-230600-
...SOUTHWEST COLORADO...

CITY           SKY/WX    TMP DP  RH WIND       PRES   REMARKS
DURANGO        FAIR      51  30  44 CALM      30.02R
CORTEZ         FAIR      52  26  36 E7        29.98R
PAGOSA SPRINGS FAIR      52  24  33 W5        30.10R
TELLURIDE      CLOUDY    47  33  58 SE7       30.19S
WOLF CREEK PAS MOCLDY    37  25  60 CALM      30.39S
$$

COZ009-010-012-014-032>034-037-058>063-230600-
...CENTRAL COLORADO...

CITY           SKY/WX    TMP DP  RH WIND       PRES   REMARKS
ASPEN          FAIR      42  36  79 SW6       30.13F
BUENA VISTA    FAIR      48  37  64 NW13      30.14R
COPPER MTN     FAIR      41  32  70 CALM      30.35F
BERTHOUD PASS  FAIR      32  21  64 W15       30.36S WCI  22
COTTONWOOD PAS FAIR      54  30  40 SW8       30.23S
GUNNISON       FAIR      49  35  58 N5        30.12R
GRANBY         FAIR      43  40  88 CALM      30.19S
KREMMLING      FAIR      48  45  87 CALM      30.16F
LEADVILLE      FAIR      37  33  85 N5        30.23R
MONARCH PASS   FAIR      39  27  60 MISG      30.45F
SALIDA         FAIR      54  33  45 W6        30.18R
SUNLIGHT       FAIR      36  34  93 E7        30.31S
WILKERSON PASS FAIR      43  28  56 CALM      30.35S
$$

COZ069>075-230600-
...SAN LUIS VALLEY/SANGRE DE CRISTO MOUNTAINS...

CITY           SKY/WX    TMP DP  RH WIND       PRES   REMARKS
ALAMOSA        MOCLDY    53  39  59 S9        30.11R
DEL NORTE      MOCLDY    49  31  50 W5        30.14S
LA VETA PASS   FAIR      45  34  65 SW14      30.38R
SAGUACHE       NOT AVBL
$$

COZ035-036-038>040-230600-
...NORTHERN COLORADO FRONT RANGE...

CITY           SKY/WX    TMP DP  RH WIND       PRES   REMARKS
DENVER INTL AP LGT RAIN  59  46  62 NE5       30.00F
AURORA         PTCLDY    58  46  64 N15       29.99F
FRONT RANGE AP MOCLDY    59  51  73 NW14G23   30.00F
ERIE MUNI ARPT FAIR      56  51  82 S3        30.04R
BOULDER MUN AP FAIR      57  50  77 E5        29.98R
CENTENNIAL     FAIR      56  48  74 SE3       30.02F
BROOMFIELD     CLOUDY    59  46  63 SE7       30.03R
FORT COLLINS   FAIR      57  52  83 N10       29.97F
LONGMONT       FAIR      59  51  74 CALM      29.99R
$$

COZ041-046-047-076>085-087-088-230600-
...PIKES PEAK/PALMER DIVIDE AND SOUTHERN FOOTHILLS...

CITY           SKY/WX    TMP DP  RH WIND       PRES   REMARKS
COLO. SPRINGS  MOCLDY    58  46  64 NE12      30.02S
A. F. ACADEMY  FAIR      57  44  62 NW9       30.04R
SCHRIEVER AFB  NOT AVBL
CHEYENNE MTN   FAIR      60  40  46 NW6       30.00S
ELLICOTT         N/A    N/A N/A N/A S15       30.00R
FALCON         FAIR      56  44  64 N5        30.07S
FORT CARSON    FAIR      58  45  61 N8        29.98R
LIMON          FAIR      64  45  49 SE16G25   29.97R
MONUMENT HILL  FAIR      54  43  66 NE3       30.11R
CANON CITY     FAIR      68  45  42 NE7       29.94S
WALSENBURG     FAIR      66  37  34 W7        30.00S
TRINIDAD       FAIR      60  44  55 SW12      30.03R
$$

COZ042>045-048>051-090-091-230600-
...NORTHEAST COLORADO...

CITY           SKY/WX    TMP DP  RH WIND       PRES   REMARKS
GREELEY ARPT   FAIR      58  51  78 N13       29.96R
AKRON          FAIR      63  51  65 SW10      29.93R
BURLINGTON     FAIR      66  53  63 S18       29.95S
WRAY           FAIR      68  52  56 SE16G23   29.89F
YUMA           FAIR      66  48  52 S16       29.89F
STERLING       FAIR      68  50  52 W6        29.91R
HOLYOKE        FAIR      63  54  72 SE8       29.91S
FORT MORGAN    FAIR      63  50  63 N21G26    29.93S
$$

COZ086-089-092>099-230600-
...SOUTHEAST COLORADO...

CITY           SKY/WX    TMP DP  RH WIND       PRES   REMARKS
PUEBLO         FAIR      69  42  37 SW13      29.89R
LA JUNTA       FAIR      71  45  39 S17       29.94R
LAMAR          FAIR      73  45  36 S16G29    29.92S
SPRINGFIELD      N/A     61  53  75 W20G32    30.03R
$$




USA.gov is the U.S. government's official web portal to all federal, state and local government web resources and services.